Allentown, PA

8:23 AM EDT on June 26, 2017 (GMT -0400)
Allentown

Weather History for KXLL - November, 2013

Change the Weather History Date:

Friday, November 1, 2013

  Actual Average (KABE) Record (KABE)
Temperature  
Mean Temperature 60 °F -  
Max Temperature 69 °F 59 °F 81 °F (1950)
Min Temperature 50 °F 40 °F 24 °F (1923)
Degree Days  
Heating Degree Days 5    
Growing Degree Days 10 (Base 50)    
Moisture  
Dew Point 53 °F    
Average Humidity 70    
Maximum Humidity 88    
Minimum Humidity 40    
Precipitation  
Precipitation 0.13 in - - ()
Sea Level Pressure  
Sea Level Pressure 29.63 in    
Wind  
Wind Speed 12 mph (SW)    
Max Wind Speed 25 mph    
Max Gust Speed 53 mph    
Visibility 10 miles    
Events Rain    
Averages and records for this station are not official NWS values.
T = Trace of Precipitation, MM = Missing Value Source: NWS Daily Summary

Daily Weather History Graph

Daily Weather History Graph

Search for Another Location

Airport or City:

Trip Planner

Search our weather history database for the weather conditions in past years. The results will help you decide how hot, cold, wet, or windy it might be!

Date:

Astronomy

Nov. 01, 2013 Rise Set
Actual Time 7:32 AM EDT 5:58 PM EDT
Civil Twilight 7:03 AM EDT 6:26 PM EDT
Nautical Twilight 6:31 AM EDT 6:58 PM EDT
Astronomical Twilight 5:59 AM EDT 7:30 PM EDT
Moon 5:21 AM EDT (11/1) 4:50 PM EDT (11/1)
Length of Visible Light 11h 22m
Length of Day
10h 25m
Waning Crescent, 4% of the Moon is Illuminated
Nov 1
Waning Crescent
Nov 3
New
Nov 10
First Quarter
Nov 17
Full
Nov 25
Last Quarter

Hourly Weather History & Observations

Time (EDT) Temp. Dew Point Humidity Pressure Visibility Wind Dir Wind Speed Gust Speed Precip Events Conditions
12:15 AM 62.6 °F 59.0 °F 88% 29.77 in 10.0 mi SSW 10.4 mph 16.1 mph N/A Rain Light Rain
12:35 AM 62.6 °F 59.0 °F 88% 29.76 in 10.0 mi SSW 9.2 mph - N/A   Scattered Clouds
12:55 AM 62.6 °F 59.0 °F 88% 29.74 in 10.0 mi SSW 11.5 mph 17.3 mph N/A   Scattered Clouds
1:15 AM 62.6 °F 59.0 °F 88% 29.73 in 10.0 mi SSW 11.5 mph - N/A   Scattered Clouds
1:35 AM 62.6 °F 59.0 °F 88% 29.71 in 10.0 mi South 15.0 mph - N/A   Clear
1:55 AM 62.6 °F 59.0 °F 88% 29.72 in 10.0 mi SSW 12.7 mph 17.3 mph N/A   Mostly Cloudy
2:15 AM 62.6 °F 59.0 °F 88% 29.71 in 10.0 mi SSW 9.2 mph - N/A   Overcast
2:35 AM 62.6 °F 59.0 °F 88% 29.70 in 10.0 mi SW 4.6 mph - N/A   Overcast
2:55 AM 62.6 °F 59.0 °F 88% 29.69 in 7.0 mi SSW 5.8 mph - 0.01 in Rain Rain
3:15 AM 62.6 °F 59.0 °F 88% 29.67 in 10.0 mi SSW 9.2 mph - N/A   Overcast
3:35 AM 62.6 °F 59.0 °F 88% 29.66 in 10.0 mi SW 8.1 mph 18.4 mph N/A Rain Light Rain
3:55 AM 64.4 °F 59.0 °F 83% 29.64 in 10.0 mi SSW 9.2 mph - N/A Rain Light Rain
4:15 AM 64.4 °F 59.0 °F 83% 29.63 in 10.0 mi SSW 12.7 mph 17.3 mph N/A   Overcast
4:35 AM 66.2 °F 59.0 °F 78% 29.61 in 10.0 mi SSW 12.7 mph 25.3 mph N/A   Mostly Cloudy
4:55 AM 66.2 °F 60.8 °F 83% 29.58 in 10.0 mi South 19.6 mph 35.7 mph 0.01 in Rain Light Rain
5:15 AM 66.2 °F 60.8 °F 83% 29.58 in 10.0 mi South 20.7 mph 29.9 mph N/A Rain Light Rain
5:35 AM 66.2 °F 60.8 °F 83% 29.57 in 10.0 mi SSW 18.4 mph 27.6 mph N/A   Overcast
5:55 AM 66.2 °F 60.8 °F 83% 29.55 in 10.0 mi South 21.9 mph 31.1 mph N/A   Drizzle
6:15 AM 66.2 °F 60.8 °F 83% 29.54 in 10.0 mi South 19.6 mph 31.1 mph 0.01 in Rain Light Rain
6:35 AM 68.0 °F 60.8 °F 78% 29.53 in 10.0 mi South 23.0 mph 33.4 mph 0.01 in   Overcast
6:55 AM 68.0 °F 60.8 °F 78% 29.53 in 10.0 mi South 25.3 mph 32.2 mph 0.01 in   Mostly Cloudy
7:15 AM 68.0 °F 60.8 °F 78% 29.52 in 10.0 mi South 23.0 mph 29.9 mph N/A   Mostly Cloudy
7:35 AM 69.8 °F 60.8 °F 73% 29.54 in 10.0 mi SSW 23.0 mph 34.5 mph N/A   Overcast
7:55 AM 69.8 °F 60.8 °F 73% 29.53 in 10.0 mi SSW 23.0 mph 34.5 mph N/A   Overcast
8:15 AM 69.8 °F 60.8 °F 73% 29.54 in 10.0 mi SSW 23.0 mph 35.7 mph N/A   Overcast
8:35 AM 62.6 °F 57.2 °F 82% 29.61 in 2.0 mi WSW 16.1 mph 52.9 mph 0.09 in Rain Light Rain
8:55 AM 60.8 °F 55.4 °F 82% 29.62 in 7.0 mi WSW 12.7 mph 21.9 mph 0.10 in Rain Light Rain
9:15 AM 60.8 °F 55.4 °F 82% 29.62 in 10.0 mi SW 12.7 mph 21.9 mph N/A Rain Light Rain
9:35 AM 62.6 °F 55.4 °F 77% 29.62 in 10.0 mi SW 11.5 mph 23.0 mph N/A   Overcast
9:55 AM 62.6 °F 55.4 °F 77% 29.61 in 10.0 mi SSW 16.1 mph 23.0 mph N/A Rain Light Rain
10:15 AM 62.6 °F 53.6 °F 72% 29.62 in 10.0 mi SW 13.8 mph - N/A   Overcast
10:35 AM 62.6 °F 53.6 °F 72% 29.62 in 10.0 mi SW 11.5 mph 17.3 mph N/A Rain Light Rain
10:55 AM 62.6 °F 53.6 °F 72% 29.64 in 10.0 mi SW 11.5 mph 17.3 mph N/A Rain Light Rain
11:15 AM 62.6 °F 55.4 °F 77% 29.60 in 10.0 mi SSW 10.4 mph - N/A Rain Light Rain
11:35 AM 62.6 °F 53.6 °F 72% 29.61 in 10.0 mi SSW 11.5 mph - N/A   Mostly Cloudy
11:55 AM 64.4 °F 53.6 °F 68% 29.61 in 10.0 mi SW 10.4 mph 16.1 mph N/A   Mostly Cloudy
12:15 PM 64.4 °F 53.6 °F 68% 29.61 in 10.0 mi SW 10.4 mph 18.4 mph N/A   Mostly Cloudy
12:35 PM 64.4 °F 53.6 °F 68% 29.63 in 10.0 mi SW 10.4 mph 18.4 mph N/A   Mostly Cloudy
12:55 PM 64.4 °F 51.8 °F 64% 29.62 in 10.0 mi SW 11.5 mph 20.7 mph N/A   Mostly Cloudy
1:15 PM 68.0 °F 51.8 °F 56% 29.61 in 10.0 mi SW 12.7 mph 18.4 mph N/A   Scattered Clouds
1:35 PM 68.0 °F 50.0 °F 52% 29.61 in 10.0 mi WSW 16.1 mph 26.5 mph N/A   Mostly Cloudy
1:55 PM 69.8 °F 50.0 °F 49% 29.60 in 10.0 mi WSW 17.3 mph 27.6 mph N/A   Scattered Clouds
2:15 PM 69.8 °F 50.0 °F 49% 29.60 in 10.0 mi WSW 13.8 mph 27.6 mph N/A   Scattered Clouds
2:35 PM 69.8 °F 50.0 °F 49% 29.60 in 10.0 mi WSW 18.4 mph 23.0 mph N/A   Scattered Clouds
2:55 PM 69.8 °F 50.0 °F 49% 29.60 in 10.0 mi SW 17.3 mph 27.6 mph N/A   Scattered Clouds
3:15 PM 69.8 °F 50.0 °F 49% 29.60 in 10.0 mi SW 15.0 mph 27.6 mph N/A   Scattered Clouds
3:35 PM 69.8 °F 48.2 °F 46% 29.60 in 10.0 mi SW 15.0 mph 21.9 mph N/A   Scattered Clouds
3:55 PM 69.8 °F 46.4 °F 43% 29.59 in 10.0 mi WSW 15.0 mph 26.5 mph N/A   Scattered Clouds
4:15 PM 69.8 °F 44.6 °F 40% 29.59 in 10.0 mi SW 15.0 mph 24.2 mph N/A   Clear
5:55 PM 66.2 °F 41.0 °F 40% 29.61 in 10.0 mi SW 5.8 mph - N/A   Clear
6:15 PM 64.4 °F 41.0 °F 42% 29.63 in 10.0 mi SSW 5.8 mph - N/A   Clear
6:35 PM 64.4 °F 41.0 °F 42% 29.63 in 10.0 mi SW 5.8 mph - N/A   Clear
6:55 PM 64.4 °F 41.0 °F 42% 29.64 in 10.0 mi SW 5.8 mph - N/A   Clear
7:15 PM 62.6 °F 42.8 °F 48% 29.64 in 10.0 mi SW 5.8 mph - N/A   Clear
7:35 PM 62.6 °F 42.8 °F 48% 29.65 in 10.0 mi SW 4.6 mph - N/A   Clear
7:55 PM 60.8 °F 42.8 °F 52% 29.66 in 10.0 mi SSW 3.5 mph - N/A   Clear
8:15 PM 59.0 °F 44.6 °F 59% 29.66 in 10.0 mi South 4.6 mph - N/A   Clear
8:35 PM 53.6 °F 42.8 °F 67% 29.67 in 10.0 mi Calm Calm - N/A   Clear
8:55 PM 55.4 °F 44.6 °F 67% 29.67 in 10.0 mi Calm Calm - N/A   Clear
9:15 PM 55.4 °F 44.6 °F 67% 29.67 in 10.0 mi SSW 3.5 mph - N/A   Clear
9:35 PM 55.4 °F 44.6 °F 67% 29.68 in 10.0 mi Calm Calm - N/A   Clear
9:55 PM 55.4 °F 44.6 °F 67% 29.70 in 10.0 mi Calm Calm - N/A   Clear
10:15 PM 51.8 °F 44.6 °F 76% 29.71 in 10.0 mi Calm Calm - N/A   Clear
10:35 PM 53.6 °F 44.6 °F 72% 29.72 in 10.0 mi SSW 3.5 mph - N/A   Scattered Clouds
10:55 PM 51.8 °F 44.6 °F 76% 29.72 in 10.0 mi Calm Calm - N/A   Mostly Cloudy
11:15 PM 51.8 °F 44.6 °F 76% 29.72 in 10.0 mi Calm Calm - N/A   Mostly Cloudy
11:35 PM 51.8 °F 44.6 °F 76% 29.71 in 10.0 mi NNE 3.5 mph - N/A   Scattered Clouds
11:55 PM 50.0 °F 44.6 °F 82% 29.69 in 10.0 mi Calm Calm - N/A   Clear